Index of /20260507/WXO-DD/model_rdps/10km/06/061
Name Last modified Size Description
Parent Directory -
20260507T06Z_MSC_RDPS_AbsoluteVorticity_IsbL-0250_RLatLon0.09_PT061H.grib2 2026-05-07 08:58 602K
20260507T06Z_MSC_RDPS_AbsoluteVorticity_IsbL-0500_RLatLon0.09_PT061H.grib2 2026-05-07 08:58 702K
20260507T06Z_MSC_RDPS_AbsoluteVorticity_IsbL-0700_RLatLon0.09_PT061H.grib2 2026-05-07 08:58 627K
20260507T06Z_MSC_RDPS_AbsoluteVorticity_IsbL-0850_RLatLon0.09_PT061H.grib2 2026-05-07 08:58 793K
20260507T06Z_MSC_RDPS_AirTemp_AGL-120m_RLatLon0.09_PT061H.grib2 2026-05-07 08:58 378K
20260507T06Z_MSC_RDPS_AirTemp_AGL-2m_RLatLon0.09_PT061H.grib2 2026-05-07 08:58 628K
20260507T06Z_MSC_RDPS_AirTemp_AGL-40m_RLatLon0.09_PT061H.grib2 2026-05-07 08:58 386K
20260507T06Z_MSC_RDPS_AirTemp_AGL-80m_RLatLon0.09_PT061H.grib2 2026-05-07 08:58 381K
20260507T06Z_MSC_RDPS_AirTemp_IsbL-0001_RLatLon0.09_PT061H.grib2 2026-05-07 08:58 327K
20260507T06Z_MSC_RDPS_AirTemp_IsbL-0005_RLatLon0.09_PT061H.grib2 2026-05-07 08:58 379K
20260507T06Z_MSC_RDPS_AirTemp_IsbL-0010_RLatLon0.09_PT061H.grib2 2026-05-07 08:58 396K
20260507T06Z_MSC_RDPS_AirTemp_IsbL-0020_RLatLon0.09_PT061H.grib2 2026-05-07 08:58 318K
20260507T06Z_MSC_RDPS_AirTemp_IsbL-0030_RLatLon0.09_PT061H.grib2 2026-05-07 08:58 338K
20260507T06Z_MSC_RDPS_AirTemp_IsbL-0050_RLatLon0.09_PT061H.grib2 2026-05-07 08:58 308K
20260507T06Z_MSC_RDPS_AirTemp_IsbL-0100_RLatLon0.09_PT061H.grib2 2026-05-07 08:58 424K
20260507T06Z_MSC_RDPS_AirTemp_IsbL-0150_RLatLon0.09_PT061H.grib2 2026-05-07 08:58 411K
20260507T06Z_MSC_RDPS_AirTemp_IsbL-0175_RLatLon0.09_PT061H.grib2 2026-05-07 08:58 405K
20260507T06Z_MSC_RDPS_AirTemp_IsbL-0200_RLatLon0.09_PT061H.grib2 2026-05-07 08:58 412K
20260507T06Z_MSC_RDPS_AirTemp_IsbL-0225_RLatLon0.09_PT061H.grib2 2026-05-07 08:58 411K
20260507T06Z_MSC_RDPS_AirTemp_IsbL-0250_RLatLon0.09_PT061H.grib2 2026-05-07 08:58 420K
20260507T06Z_MSC_RDPS_AirTemp_IsbL-0275_RLatLon0.09_PT061H.grib2 2026-05-07 08:58 400K
20260507T06Z_MSC_RDPS_AirTemp_IsbL-0300_RLatLon0.09_PT061H.grib2 2026-05-07 08:58 430K
20260507T06Z_MSC_RDPS_AirTemp_IsbL-0350_RLatLon0.09_PT061H.grib2 2026-05-07 08:58 419K
20260507T06Z_MSC_RDPS_AirTemp_IsbL-0400_RLatLon0.09_PT061H.grib2 2026-05-07 08:58 421K
20260507T06Z_MSC_RDPS_AirTemp_IsbL-0450_RLatLon0.09_PT061H.grib2 2026-05-07 08:58 429K
20260507T06Z_MSC_RDPS_AirTemp_IsbL-0500_RLatLon0.09_PT061H.grib2 2026-05-07 08:58 441K
20260507T06Z_MSC_RDPS_AirTemp_IsbL-0550_RLatLon0.09_PT061H.grib2 2026-05-07 08:58 462K
20260507T06Z_MSC_RDPS_AirTemp_IsbL-0600_RLatLon0.09_PT061H.grib2 2026-05-07 08:58 483K
20260507T06Z_MSC_RDPS_AirTemp_IsbL-0650_RLatLon0.09_PT061H.grib2 2026-05-07 08:58 500K
20260507T06Z_MSC_RDPS_AirTemp_IsbL-0700_RLatLon0.09_PT061H.grib2 2026-05-07 08:58 492K
20260507T06Z_MSC_RDPS_AirTemp_IsbL-0750_RLatLon0.09_PT061H.grib2 2026-05-07 08:58 538K
20260507T06Z_MSC_RDPS_AirTemp_IsbL-0800_RLatLon0.09_PT061H.grib2 2026-05-07 08:58 590K
20260507T06Z_MSC_RDPS_AirTemp_IsbL-0850_RLatLon0.09_PT061H.grib2 2026-05-07 08:58 640K
20260507T06Z_MSC_RDPS_AirTemp_IsbL-0875_RLatLon0.09_PT061H.grib2 2026-05-07 08:58 530K
20260507T06Z_MSC_RDPS_AirTemp_IsbL-0900_RLatLon0.09_PT061H.grib2 2026-05-07 08:58 536K
20260507T06Z_MSC_RDPS_AirTemp_IsbL-0925_RLatLon0.09_PT061H.grib2 2026-05-07 08:58 536K
20260507T06Z_MSC_RDPS_AirTemp_IsbL-0950_RLatLon0.09_PT061H.grib2 2026-05-07 08:58 536K
20260507T06Z_MSC_RDPS_AirTemp_IsbL-0970_RLatLon0.09_PT061H.grib2 2026-05-07 08:58 532K
20260507T06Z_MSC_RDPS_AirTemp_IsbL-0985_RLatLon0.09_PT061H.grib2 2026-05-07 08:58 516K
20260507T06Z_MSC_RDPS_AirTemp_IsbL-1000_RLatLon0.09_PT061H.grib2 2026-05-07 08:58 503K
20260507T06Z_MSC_RDPS_AirTemp_IsbL-1015_RLatLon0.09_PT061H.grib2 2026-05-07 08:58 502K
20260507T06Z_MSC_RDPS_Albedo_Sfc_RLatLon0.09_PT061H.grib2 2026-05-07 08:58 156K
20260507T06Z_MSC_RDPS_CAPE_Sfc_RLatLon0.09_PT061H.grib2 2026-05-07 08:58 1.8M
20260507T06Z_MSC_RDPS_CIN_Sfc_RLatLon0.09_PT061H.grib2 2026-05-07 08:58 1.3M
20260507T06Z_MSC_RDPS_CloudWater_EAtm_RLatLon0.09_PT061H.grib2 2026-05-07 08:58 227K
20260507T06Z_MSC_RDPS_ConvectivePrecip-Accum_Sfc_RLatLon0.09_PT061H.grib2 2026-05-07 08:58 1.2M
20260507T06Z_MSC_RDPS_DewPointDepression_AGL-2m_RLatLon0.09_PT061H.grib2 2026-05-07 08:58 421K
20260507T06Z_MSC_RDPS_DewPointDepression_IsbL-0001_RLatLon0.09_PT061H.grib2 2026-05-07 08:58 193
20260507T06Z_MSC_RDPS_DewPointDepression_IsbL-0005_RLatLon0.09_PT061H.grib2 2026-05-07 08:58 193
20260507T06Z_MSC_RDPS_DewPointDepression_IsbL-0010_RLatLon0.09_PT061H.grib2 2026-05-07 08:58 193
20260507T06Z_MSC_RDPS_DewPointDepression_IsbL-0020_RLatLon0.09_PT061H.grib2 2026-05-07 08:58 193
20260507T06Z_MSC_RDPS_DewPointDepression_IsbL-0030_RLatLon0.09_PT061H.grib2 2026-05-07 08:58 193
20260507T06Z_MSC_RDPS_DewPointDepression_IsbL-0050_RLatLon0.09_PT061H.grib2 2026-05-07 08:58 108K
20260507T06Z_MSC_RDPS_DewPointDepression_IsbL-0100_RLatLon0.09_PT061H.grib2 2026-05-07 08:58 111K
20260507T06Z_MSC_RDPS_DewPointDepression_IsbL-0150_RLatLon0.09_PT061H.grib2 2026-05-07 08:58 148K
20260507T06Z_MSC_RDPS_DewPointDepression_IsbL-0175_RLatLon0.09_PT061H.grib2 2026-05-07 08:58 177K
20260507T06Z_MSC_RDPS_DewPointDepression_IsbL-0200_RLatLon0.09_PT061H.grib2 2026-05-07 08:58 223K
20260507T06Z_MSC_RDPS_DewPointDepression_IsbL-0225_RLatLon0.09_PT061H.grib2 2026-05-07 08:58 263K
20260507T06Z_MSC_RDPS_DewPointDepression_IsbL-0250_RLatLon0.09_PT061H.grib2 2026-05-07 08:58 303K
20260507T06Z_MSC_RDPS_DewPointDepression_IsbL-0275_RLatLon0.09_PT061H.grib2 2026-05-07 08:58 309K
20260507T06Z_MSC_RDPS_DewPointDepression_IsbL-0300_RLatLon0.09_PT061H.grib2 2026-05-07 08:58 322K
20260507T06Z_MSC_RDPS_DewPointDepression_IsbL-0350_RLatLon0.09_PT061H.grib2 2026-05-07 08:58 325K
20260507T06Z_MSC_RDPS_DewPointDepression_IsbL-0400_RLatLon0.09_PT061H.grib2 2026-05-07 08:58 335K
20260507T06Z_MSC_RDPS_DewPointDepression_IsbL-0450_RLatLon0.09_PT061H.grib2 2026-05-07 08:58 340K
20260507T06Z_MSC_RDPS_DewPointDepression_IsbL-0500_RLatLon0.09_PT061H.grib2 2026-05-07 08:58 343K
20260507T06Z_MSC_RDPS_DewPointDepression_IsbL-0550_RLatLon0.09_PT061H.grib2 2026-05-07 08:58 355K
20260507T06Z_MSC_RDPS_DewPointDepression_IsbL-0600_RLatLon0.09_PT061H.grib2 2026-05-07 08:58 371K
20260507T06Z_MSC_RDPS_DewPointDepression_IsbL-0650_RLatLon0.09_PT061H.grib2 2026-05-07 08:58 383K
20260507T06Z_MSC_RDPS_DewPointDepression_IsbL-0700_RLatLon0.09_PT061H.grib2 2026-05-07 08:58 396K
20260507T06Z_MSC_RDPS_DewPointDepression_IsbL-0750_RLatLon0.09_PT061H.grib2 2026-05-07 08:58 422K
20260507T06Z_MSC_RDPS_DewPointDepression_IsbL-0800_RLatLon0.09_PT061H.grib2 2026-05-07 08:58 462K
20260507T06Z_MSC_RDPS_DewPointDepression_IsbL-0850_RLatLon0.09_PT061H.grib2 2026-05-07 08:58 485K
20260507T06Z_MSC_RDPS_DewPointDepression_IsbL-0875_RLatLon0.09_PT061H.grib2 2026-05-07 08:58 480K
20260507T06Z_MSC_RDPS_DewPointDepression_IsbL-0900_RLatLon0.09_PT061H.grib2 2026-05-07 08:58 467K
20260507T06Z_MSC_RDPS_DewPointDepression_IsbL-0925_RLatLon0.09_PT061H.grib2 2026-05-07 08:58 452K
20260507T06Z_MSC_RDPS_DewPointDepression_IsbL-0950_RLatLon0.09_PT061H.grib2 2026-05-07 08:58 441K
20260507T06Z_MSC_RDPS_DewPointDepression_IsbL-0970_RLatLon0.09_PT061H.grib2 2026-05-07 08:58 436K
20260507T06Z_MSC_RDPS_DewPointDepression_IsbL-0985_RLatLon0.09_PT061H.grib2 2026-05-07 08:58 428K
20260507T06Z_MSC_RDPS_DewPointDepression_IsbL-1000_RLatLon0.09_PT061H.grib2 2026-05-07 08:58 423K
20260507T06Z_MSC_RDPS_DewPointDepression_IsbL-1015_RLatLon0.09_PT061H.grib2 2026-05-07 08:58 415K
20260507T06Z_MSC_RDPS_DewPoint_AGL-2m_RLatLon0.09_PT061H.grib2 2026-05-07 08:58 396K
20260507T06Z_MSC_RDPS_DownwardLongwaveRadiationFlux-Accum_Sfc_RLatLon0.09_PT061H.grib2 2026-05-07 08:58 410K
20260507T06Z_MSC_RDPS_DownwardShortwaveRadiationFlux-Accum_NTAtm_RLatLon0.09_PT061H.grib2 2026-05-07 08:58 105K
20260507T06Z_MSC_RDPS_DownwardShortwaveRadiationFlux-Accum_Sfc_RLatLon0.09_PT061H.grib2 2026-05-07 08:58 607K
20260507T06Z_MSC_RDPS_FreezingRain-Accum1h_Sfc_RLatLon0.09_PT061H.grib2 2026-05-07 08:58 14K
20260507T06Z_MSC_RDPS_FreezingRain-Accum_Sfc_RLatLon0.09_PT061H.grib2 2026-05-07 08:58 177K
20260507T06Z_MSC_RDPS_GeopotentialHeight_IsbL-0001_RLatLon0.09_PT061H.grib2 2026-05-07 08:58 249K
20260507T06Z_MSC_RDPS_GeopotentialHeight_IsbL-0005_RLatLon0.09_PT061H.grib2 2026-05-07 08:58 342K
20260507T06Z_MSC_RDPS_GeopotentialHeight_IsbL-0010_RLatLon0.09_PT061H.grib2 2026-05-07 08:58 311K
20260507T06Z_MSC_RDPS_GeopotentialHeight_IsbL-0020_RLatLon0.09_PT061H.grib2 2026-05-07 08:58 310K
20260507T06Z_MSC_RDPS_GeopotentialHeight_IsbL-0030_RLatLon0.09_PT061H.grib2 2026-05-07 08:58 310K
20260507T06Z_MSC_RDPS_GeopotentialHeight_IsbL-0050_RLatLon0.09_PT061H.grib2 2026-05-07 08:58 311K
20260507T06Z_MSC_RDPS_GeopotentialHeight_IsbL-0100_RLatLon0.09_PT061H.grib2 2026-05-07 08:58 285K
20260507T06Z_MSC_RDPS_GeopotentialHeight_IsbL-0150_RLatLon0.09_PT061H.grib2 2026-05-07 08:58 227K
20260507T06Z_MSC_RDPS_GeopotentialHeight_IsbL-0175_RLatLon0.09_PT061H.grib2 2026-05-07 08:58 230K
20260507T06Z_MSC_RDPS_GeopotentialHeight_IsbL-0200_RLatLon0.09_PT061H.grib2 2026-05-07 08:58 233K
20260507T06Z_MSC_RDPS_GeopotentialHeight_IsbL-0225_RLatLon0.09_PT061H.grib2 2026-05-07 08:58 266K
20260507T06Z_MSC_RDPS_GeopotentialHeight_IsbL-0250_RLatLon0.09_PT061H.grib2 2026-05-07 08:58 268K
20260507T06Z_MSC_RDPS_GeopotentialHeight_IsbL-0275_RLatLon0.09_PT061H.grib2 2026-05-07 08:58 237K
20260507T06Z_MSC_RDPS_GeopotentialHeight_IsbL-0300_RLatLon0.09_PT061H.grib2 2026-05-07 08:58 236K
20260507T06Z_MSC_RDPS_GeopotentialHeight_IsbL-0350_RLatLon0.09_PT061H.grib2 2026-05-07 08:58 232K
20260507T06Z_MSC_RDPS_GeopotentialHeight_IsbL-0400_RLatLon0.09_PT061H.grib2 2026-05-07 08:58 228K
20260507T06Z_MSC_RDPS_GeopotentialHeight_IsbL-0450_RLatLon0.09_PT061H.grib2 2026-05-07 08:58 295K
20260507T06Z_MSC_RDPS_GeopotentialHeight_IsbL-0500_RLatLon0.09_PT061H.grib2 2026-05-07 08:58 290K
20260507T06Z_MSC_RDPS_GeopotentialHeight_IsbL-0550_RLatLon0.09_PT061H.grib2 2026-05-07 08:58 287K
20260507T06Z_MSC_RDPS_GeopotentialHeight_IsbL-0600_RLatLon0.09_PT061H.grib2 2026-05-07 08:58 284K
20260507T06Z_MSC_RDPS_GeopotentialHeight_IsbL-0650_RLatLon0.09_PT061H.grib2 2026-05-07 08:58 285K
20260507T06Z_MSC_RDPS_GeopotentialHeight_IsbL-0700_RLatLon0.09_PT061H.grib2 2026-05-07 08:58 257K
20260507T06Z_MSC_RDPS_GeopotentialHeight_IsbL-0750_RLatLon0.09_PT061H.grib2 2026-05-07 08:58 261K
20260507T06Z_MSC_RDPS_GeopotentialHeight_IsbL-0800_RLatLon0.09_PT061H.grib2 2026-05-07 08:58 268K
20260507T06Z_MSC_RDPS_GeopotentialHeight_IsbL-0850_RLatLon0.09_PT061H.grib2 2026-05-07 08:58 274K
20260507T06Z_MSC_RDPS_GeopotentialHeight_IsbL-0875_RLatLon0.09_PT061H.grib2 2026-05-07 08:58 277K
20260507T06Z_MSC_RDPS_GeopotentialHeight_IsbL-0900_RLatLon0.09_PT061H.grib2 2026-05-07 08:58 280K
20260507T06Z_MSC_RDPS_GeopotentialHeight_IsbL-0925_RLatLon0.09_PT061H.grib2 2026-05-07 08:58 283K
20260507T06Z_MSC_RDPS_GeopotentialHeight_IsbL-0950_RLatLon0.09_PT061H.grib2 2026-05-07 08:58 288K
20260507T06Z_MSC_RDPS_GeopotentialHeight_IsbL-0970_RLatLon0.09_PT061H.grib2 2026-05-07 08:58 294K
20260507T06Z_MSC_RDPS_GeopotentialHeight_IsbL-0985_RLatLon0.09_PT061H.grib2 2026-05-07 08:58 301K
20260507T06Z_MSC_RDPS_GeopotentialHeight_IsbL-1000_RLatLon0.09_PT061H.grib2 2026-05-07 08:58 404K
20260507T06Z_MSC_RDPS_GeopotentialHeight_IsbL-1015_RLatLon0.09_PT061H.grib2 2026-05-07 08:58 420K
20260507T06Z_MSC_RDPS_HighLowPressure_MSL_RLatLon0.09_PT061H.json 2026-05-07 08:50 19K
20260507T06Z_MSC_RDPS_Humidex_Sfc_RLatLon0.09_PT061H.grib2 2026-05-07 08:58 2.4M
20260507T06Z_MSC_RDPS_IcePellets-Accum1h_Sfc_RLatLon0.09_PT061H.grib2 2026-05-07 08:58 6.2K
20260507T06Z_MSC_RDPS_IcePellets-Accum_Sfc_RLatLon0.09_PT061H.grib2 2026-05-07 08:58 23K
20260507T06Z_MSC_RDPS_KIndex_Sfc_RLatLon0.09_PT061H.grib2 2026-05-07 08:58 2.5M
20260507T06Z_MSC_RDPS_LatentHeatNetFlux_Sfc_RLatLon0.09_PT061H.grib2 2026-05-07 08:58 323K
20260507T06Z_MSC_RDPS_LiftedIndex-MU-VT_IsbL-0500_RLatLon0.09_PT061H.grib2 2026-05-07 08:58 2.4M
20260507T06Z_MSC_RDPS_NetLongwaveRadiationFlux-Accum_Sfc_RLatLon0.09_PT061H.grib2 2026-05-07 08:58 588K
20260507T06Z_MSC_RDPS_NetShortwaveRadiationFlux-Accum_Sfc_RLatLon0.09_PT061H.grib2 2026-05-07 08:58 609K
20260507T06Z_MSC_RDPS_PlanetaryBoundaryLayerHeight_Sfc_RLatLon0.09_PT061H.grib2 2026-05-07 08:58 1.0M
20260507T06Z_MSC_RDPS_Precip-Accum1h_Sfc_RLatLon0.09_PT061H.grib2 2026-05-07 08:58 1.2M
20260507T06Z_MSC_RDPS_Precip-Accum_Sfc_RLatLon0.09_PT061H.grib2 2026-05-07 08:58 2.1M
20260507T06Z_MSC_RDPS_PrecipRate_Sfc_RLatLon0.09_PT061H.grib2 2026-05-07 08:58 195K
20260507T06Z_MSC_RDPS_PrecipType-Instant_Sfc_RLatLon0.09_PT061H.grib2 2026-05-07 08:58 608K
20260507T06Z_MSC_RDPS_Pressure-Trend3h_Sfc_RLatLon0.09_PT061H.grib2 2026-05-07 08:58 1.2M
20260507T06Z_MSC_RDPS_Pressure_MSL_RLatLon0.09_PT061H.grib2 2026-05-07 08:58 331K
20260507T06Z_MSC_RDPS_Pressure_PVU-1.5_RLatLon0.09_PT061H.grib2 2026-05-07 08:58 2.3M
20260507T06Z_MSC_RDPS_Pressure_PVU-1_RLatLon0.09_PT061H.grib2 2026-05-07 08:58 2.4M
20260507T06Z_MSC_RDPS_Pressure_PVU-2_RLatLon0.09_PT061H.grib2 2026-05-07 08:58 2.3M
20260507T06Z_MSC_RDPS_Pressure_Sfc_RLatLon0.09_PT061H.grib2 2026-05-07 08:58 499K
20260507T06Z_MSC_RDPS_RadiativeTemp_Sfc_RLatLon0.09_PT061H.grib2 2026-05-07 08:58 330K
20260507T06Z_MSC_RDPS_Rain-Accum1h_Sfc_RLatLon0.09_PT061H.grib2 2026-05-07 08:58 654K
20260507T06Z_MSC_RDPS_Rain-Accum_Sfc_RLatLon0.09_PT061H.grib2 2026-05-07 08:58 1.8M
20260507T06Z_MSC_RDPS_RelativeHumidity_AGL-2m_RLatLon0.09_PT061H.grib2 2026-05-07 08:58 1.0M
20260507T06Z_MSC_RDPS_RelativeHumidity_IsbL-0010_RLatLon0.09_PT061H.grib2 2026-05-07 08:58 610K
20260507T06Z_MSC_RDPS_RelativeHumidity_IsbL-0020_RLatLon0.09_PT061H.grib2 2026-05-07 08:58 639K
20260507T06Z_MSC_RDPS_RelativeHumidity_IsbL-0030_RLatLon0.09_PT061H.grib2 2026-05-07 08:58 631K
20260507T06Z_MSC_RDPS_RelativeHumidity_IsbL-0050_RLatLon0.09_PT061H.grib2 2026-05-07 08:58 356K
20260507T06Z_MSC_RDPS_RelativeHumidity_IsbL-0100_RLatLon0.09_PT061H.grib2 2026-05-07 08:58 277K
20260507T06Z_MSC_RDPS_RelativeHumidity_IsbL-0150_RLatLon0.09_PT061H.grib2 2026-05-07 08:58 415K
20260507T06Z_MSC_RDPS_RelativeHumidity_IsbL-0175_RLatLon0.09_PT061H.grib2 2026-05-07 08:58 466K
20260507T06Z_MSC_RDPS_RelativeHumidity_IsbL-0200_RLatLon0.09_PT061H.grib2 2026-05-07 08:58 544K
20260507T06Z_MSC_RDPS_RelativeHumidity_IsbL-0225_RLatLon0.09_PT061H.grib2 2026-05-07 08:58 614K
20260507T06Z_MSC_RDPS_RelativeHumidity_IsbL-0250_RLatLon0.09_PT061H.grib2 2026-05-07 08:58 686K
20260507T06Z_MSC_RDPS_RelativeHumidity_IsbL-0275_RLatLon0.09_PT061H.grib2 2026-05-07 08:58 713K
20260507T06Z_MSC_RDPS_RelativeHumidity_IsbL-0300_RLatLon0.09_PT061H.grib2 2026-05-07 08:58 749K
20260507T06Z_MSC_RDPS_RelativeHumidity_IsbL-0350_RLatLon0.09_PT061H.grib2 2026-05-07 08:58 765K
20260507T06Z_MSC_RDPS_RelativeHumidity_IsbL-0400_RLatLon0.09_PT061H.grib2 2026-05-07 08:58 781K
20260507T06Z_MSC_RDPS_RelativeHumidity_IsbL-0450_RLatLon0.09_PT061H.grib2 2026-05-07 08:58 789K
20260507T06Z_MSC_RDPS_RelativeHumidity_IsbL-0500_RLatLon0.09_PT061H.grib2 2026-05-07 08:58 797K
20260507T06Z_MSC_RDPS_RelativeHumidity_IsbL-0550_RLatLon0.09_PT061H.grib2 2026-05-07 08:58 813K
20260507T06Z_MSC_RDPS_RelativeHumidity_IsbL-0600_RLatLon0.09_PT061H.grib2 2026-05-07 08:58 835K
20260507T06Z_MSC_RDPS_RelativeHumidity_IsbL-0650_RLatLon0.09_PT061H.grib2 2026-05-07 08:58 853K
20260507T06Z_MSC_RDPS_RelativeHumidity_IsbL-0700_RLatLon0.09_PT061H.grib2 2026-05-07 08:58 893K
20260507T06Z_MSC_RDPS_RelativeHumidity_IsbL-0750_RLatLon0.09_PT061H.grib2 2026-05-07 08:58 941K
20260507T06Z_MSC_RDPS_RelativeHumidity_IsbL-0800_RLatLon0.09_PT061H.grib2 2026-05-07 08:58 1.0M
20260507T06Z_MSC_RDPS_RelativeHumidity_IsbL-0850_RLatLon0.09_PT061H.grib2 2026-05-07 08:58 1.1M
20260507T06Z_MSC_RDPS_RelativeHumidity_IsbL-0875_RLatLon0.09_PT061H.grib2 2026-05-07 08:58 1.1M
20260507T06Z_MSC_RDPS_RelativeHumidity_IsbL-0900_RLatLon0.09_PT061H.grib2 2026-05-07 08:58 1.1M
20260507T06Z_MSC_RDPS_RelativeHumidity_IsbL-0925_RLatLon0.09_PT061H.grib2 2026-05-07 08:58 1.1M
20260507T06Z_MSC_RDPS_RelativeHumidity_IsbL-0950_RLatLon0.09_PT061H.grib2 2026-05-07 08:58 1.1M
20260507T06Z_MSC_RDPS_RelativeHumidity_IsbL-0970_RLatLon0.09_PT061H.grib2 2026-05-07 08:58 1.0M
20260507T06Z_MSC_RDPS_RelativeHumidity_IsbL-0985_RLatLon0.09_PT061H.grib2 2026-05-07 08:58 1.0M
20260507T06Z_MSC_RDPS_RelativeHumidity_IsbL-1000_RLatLon0.09_PT061H.grib2 2026-05-07 08:58 1.0M
20260507T06Z_MSC_RDPS_RelativeHumidity_IsbL-1015_RLatLon0.09_PT061H.grib2 2026-05-07 08:58 1.0M
20260507T06Z_MSC_RDPS_Runoff-Accum_Sfc_RLatLon0.09_PT061H.grib2 2026-05-07 08:58 60K
20260507T06Z_MSC_RDPS_SWEATIndex_Sfc_RLatLon0.09_PT061H.grib2 2026-05-07 08:58 2.5M
20260507T06Z_MSC_RDPS_SeeingIndex_EAtm_RLatLon0.09_PT061H.grib2 2026-05-07 08:58 1.0M
20260507T06Z_MSC_RDPS_SensibleHeatNetFlux_Sfc_RLatLon0.09_PT061H.grib2 2026-05-07 08:58 285K
20260507T06Z_MSC_RDPS_ShowalterIndex_IsbL-0500_RLatLon0.09_PT061H.grib2 2026-05-07 08:58 2.6M
20260507T06Z_MSC_RDPS_SkyTransparencyIndex_EAtm_RLatLon0.09_PT061H.grib2 2026-05-07 08:58 689K
20260507T06Z_MSC_RDPS_Snow-Accum1h_Sfc_RLatLon0.09_PT061H.grib2 2026-05-07 08:58 446K
20260507T06Z_MSC_RDPS_Snow-Accum_Sfc_RLatLon0.09_PT061H.grib2 2026-05-07 08:58 760K
20260507T06Z_MSC_RDPS_SnowDensity_Sfc_RLatLon0.09_PT061H.grib2 2026-05-07 08:58 173K
20260507T06Z_MSC_RDPS_SnowDepth_Sfc_RLatLon0.09_PT061H.grib2 2026-05-07 08:58 627K
20260507T06Z_MSC_RDPS_SoilTemp_DBS-0to10cm_RLatLon0.09_PT061H.grib2 2026-05-07 08:58 244K
20260507T06Z_MSC_RDPS_SoilTemp_Sfc_RLatLon0.09_PT061H.grib2 2026-05-07 08:58 296K
20260507T06Z_MSC_RDPS_SoilVolumetricIceContent_Sfc_RLatLon0.09_PT061H.grib2 2026-05-07 08:58 144K
20260507T06Z_MSC_RDPS_SoilVolumetricWaterContent_DBS-0to10cm_RLatLon0.09_PT061H.grib2 2026-05-07 08:58 290K
20260507T06Z_MSC_RDPS_SoilVolumetricWaterContent_DBS-0to1cm_RLatLon0.09_PT061H.grib2 2026-05-07 08:58 341K
20260507T06Z_MSC_RDPS_SpecificHumidity_AGL-120m_RLatLon0.09_PT061H.grib2 2026-05-07 08:58 508K
20260507T06Z_MSC_RDPS_SpecificHumidity_AGL-2m_RLatLon0.09_PT061H.grib2 2026-05-07 08:58 679K
20260507T06Z_MSC_RDPS_SpecificHumidity_AGL-40m_RLatLon0.09_PT061H.grib2 2026-05-07 08:58 512K
20260507T06Z_MSC_RDPS_SpecificHumidity_AGL-80m_RLatLon0.09_PT061H.grib2 2026-05-07 08:58 509K
20260507T06Z_MSC_RDPS_SpecificHumidity_IsbL-0001_RLatLon0.09_PT061H.grib2 2026-05-07 08:58 368K
20260507T06Z_MSC_RDPS_SpecificHumidity_IsbL-0005_RLatLon0.09_PT061H.grib2 2026-05-07 08:58 369K
20260507T06Z_MSC_RDPS_SpecificHumidity_IsbL-0010_RLatLon0.09_PT061H.grib2 2026-05-07 08:58 397K
20260507T06Z_MSC_RDPS_SpecificHumidity_IsbL-0020_RLatLon0.09_PT061H.grib2 2026-05-07 08:58 489K
20260507T06Z_MSC_RDPS_SpecificHumidity_IsbL-0030_RLatLon0.09_PT061H.grib2 2026-05-07 08:58 370K
20260507T06Z_MSC_RDPS_SpecificHumidity_IsbL-0050_RLatLon0.09_PT061H.grib2 2026-05-07 08:58 366K
20260507T06Z_MSC_RDPS_SpecificHumidity_IsbL-0100_RLatLon0.09_PT061H.grib2 2026-05-07 08:58 406K
20260507T06Z_MSC_RDPS_SpecificHumidity_IsbL-0150_RLatLon0.09_PT061H.grib2 2026-05-07 08:58 458K
20260507T06Z_MSC_RDPS_SpecificHumidity_IsbL-0175_RLatLon0.09_PT061H.grib2 2026-05-07 08:58 433K
20260507T06Z_MSC_RDPS_SpecificHumidity_IsbL-0200_RLatLon0.09_PT061H.grib2 2026-05-07 08:58 467K
20260507T06Z_MSC_RDPS_SpecificHumidity_IsbL-0225_RLatLon0.09_PT061H.grib2 2026-05-07 08:58 456K
20260507T06Z_MSC_RDPS_SpecificHumidity_IsbL-0250_RLatLon0.09_PT061H.grib2 2026-05-07 08:58 518K
20260507T06Z_MSC_RDPS_SpecificHumidity_IsbL-0275_RLatLon0.09_PT061H.grib2 2026-05-07 08:58 478K
20260507T06Z_MSC_RDPS_SpecificHumidity_IsbL-0300_RLatLon0.09_PT061H.grib2 2026-05-07 08:58 573K
20260507T06Z_MSC_RDPS_SpecificHumidity_IsbL-0350_RLatLon0.09_PT061H.grib2 2026-05-07 08:58 565K
20260507T06Z_MSC_RDPS_SpecificHumidity_IsbL-0400_RLatLon0.09_PT061H.grib2 2026-05-07 08:58 523K
20260507T06Z_MSC_RDPS_SpecificHumidity_IsbL-0450_RLatLon0.09_PT061H.grib2 2026-05-07 08:58 576K
20260507T06Z_MSC_RDPS_SpecificHumidity_IsbL-0500_RLatLon0.09_PT061H.grib2 2026-05-07 08:58 513K
20260507T06Z_MSC_RDPS_SpecificHumidity_IsbL-0550_RLatLon0.09_PT061H.grib2 2026-05-07 08:58 584K
20260507T06Z_MSC_RDPS_SpecificHumidity_IsbL-0600_RLatLon0.09_PT061H.grib2 2026-05-07 08:58 639K
20260507T06Z_MSC_RDPS_SpecificHumidity_IsbL-0650_RLatLon0.09_PT061H.grib2 2026-05-07 08:58 561K
20260507T06Z_MSC_RDPS_SpecificHumidity_IsbL-0700_RLatLon0.09_PT061H.grib2 2026-05-07 08:58 612K
20260507T06Z_MSC_RDPS_SpecificHumidity_IsbL-0750_RLatLon0.09_PT061H.grib2 2026-05-07 08:58 690K
20260507T06Z_MSC_RDPS_SpecificHumidity_IsbL-0800_RLatLon0.09_PT061H.grib2 2026-05-07 08:58 771K
20260507T06Z_MSC_RDPS_SpecificHumidity_IsbL-0850_RLatLon0.09_PT061H.grib2 2026-05-07 08:58 702K
20260507T06Z_MSC_RDPS_SpecificHumidity_IsbL-0875_RLatLon0.09_PT061H.grib2 2026-05-07 08:58 718K
20260507T06Z_MSC_RDPS_SpecificHumidity_IsbL-0900_RLatLon0.09_PT061H.grib2 2026-05-07 08:58 726K
20260507T06Z_MSC_RDPS_SpecificHumidity_IsbL-0925_RLatLon0.09_PT061H.grib2 2026-05-07 08:58 727K
20260507T06Z_MSC_RDPS_SpecificHumidity_IsbL-0950_RLatLon0.09_PT061H.grib2 2026-05-07 08:58 725K
20260507T06Z_MSC_RDPS_SpecificHumidity_IsbL-0970_RLatLon0.09_PT061H.grib2 2026-05-07 08:58 721K
20260507T06Z_MSC_RDPS_SpecificHumidity_IsbL-0985_RLatLon0.09_PT061H.grib2 2026-05-07 08:58 712K
20260507T06Z_MSC_RDPS_SpecificHumidity_IsbL-1000_RLatLon0.09_PT061H.grib2 2026-05-07 08:58 704K
20260507T06Z_MSC_RDPS_SpecificHumidity_IsbL-1015_RLatLon0.09_PT061H.grib2 2026-05-07 08:58 693K
20260507T06Z_MSC_RDPS_SpecificHumidity_Sfc_RLatLon0.09_PT061H.grib2 2026-05-07 08:58 357K
20260507T06Z_MSC_RDPS_StormRelativeHelicity_EtaL-10000_RLatLon0.09_PT061H.grib2 2026-05-07 08:58 1.1M
20260507T06Z_MSC_RDPS_StormSeverityIndex_EtaL-10000_RLatLon0.09_PT061H.grib2 2026-05-07 08:58 1.2M
20260507T06Z_MSC_RDPS_Thickness_IsbL-0850to0700_RLatLon0.09_PT061H.grib2 2026-05-07 08:58 253K
20260507T06Z_MSC_RDPS_Thickness_IsbL-1000to0500_RLatLon0.09_PT061H.grib2 2026-05-07 08:58 200K
20260507T06Z_MSC_RDPS_Thickness_IsbL-1000to0850_RLatLon0.09_PT061H.grib2 2026-05-07 08:58 268K
20260507T06Z_MSC_RDPS_TotalCloudCover_Sfc_RLatLon0.09_PT061H.grib2 2026-05-07 08:58 643K
20260507T06Z_MSC_RDPS_TotalTotalsIndex_Sfc_RLatLon0.09_PT061H.grib2 2026-05-07 08:58 2.6M
20260507T06Z_MSC_RDPS_UVIndex-ClearSky_Sfc_RLatLon0.09_PT061H.grib2 2026-05-07 08:58 231K
20260507T06Z_MSC_RDPS_UVIndex_Sfc_RLatLon0.09_PT061H.grib2 2026-05-07 08:58 549K
20260507T06Z_MSC_RDPS_UpwardLongwaveRadiationFlux_NTAtm_RLatLon0.09_PT061H.grib2 2026-05-07 08:58 378K
20260507T06Z_MSC_RDPS_UpwardShortwaveRadiationFlux_NTAtm_RLatLon0.09_PT061H.grib2 2026-05-07 08:58 575K
20260507T06Z_MSC_RDPS_VerticalVelocity_IsbL-0250_RLatLon0.09_PT061H.grib2 2026-05-07 08:58 577K
20260507T06Z_MSC_RDPS_VerticalVelocity_IsbL-0500_RLatLon0.09_PT061H.grib2 2026-05-07 08:58 534K
20260507T06Z_MSC_RDPS_VerticalVelocity_IsbL-0700_RLatLon0.09_PT061H.grib2 2026-05-07 08:58 603K
20260507T06Z_MSC_RDPS_VerticalVelocity_IsbL-0850_RLatLon0.09_PT061H.grib2 2026-05-07 08:58 712K
20260507T06Z_MSC_RDPS_VerticalWindShear_EtaL-6500_RLatLon0.09_PT061H.grib2 2026-05-07 08:58 1.2M
20260507T06Z_MSC_RDPS_WindChill_Sfc_RLatLon0.09_PT061H.grib2 2026-05-07 08:58 1.2M
20260507T06Z_MSC_RDPS_WindDir_AGL-10m_RLatLon0.09_PT061H.grib2 2026-05-07 08:58 967K
20260507T06Z_MSC_RDPS_WindDir_AGL-120m_RLatLon0.09_PT061H.grib2 2026-05-07 08:58 616K
20260507T06Z_MSC_RDPS_WindDir_AGL-40m_RLatLon0.09_PT061H.grib2 2026-05-07 08:58 636K
20260507T06Z_MSC_RDPS_WindDir_AGL-80m_RLatLon0.09_PT061H.grib2 2026-05-07 08:58 625K
20260507T06Z_MSC_RDPS_WindDir_IsbL-0001_RLatLon0.09_PT061H.grib2 2026-05-07 08:58 274K
20260507T06Z_MSC_RDPS_WindDir_IsbL-0005_RLatLon0.09_PT061H.grib2 2026-05-07 08:58 360K
20260507T06Z_MSC_RDPS_WindDir_IsbL-0010_RLatLon0.09_PT061H.grib2 2026-05-07 08:58 387K
20260507T06Z_MSC_RDPS_WindDir_IsbL-0020_RLatLon0.09_PT061H.grib2 2026-05-07 08:58 420K
20260507T06Z_MSC_RDPS_WindDir_IsbL-0030_RLatLon0.09_PT061H.grib2 2026-05-07 08:58 422K
20260507T06Z_MSC_RDPS_WindDir_IsbL-0050_RLatLon0.09_PT061H.grib2 2026-05-07 08:58 427K
20260507T06Z_MSC_RDPS_WindDir_IsbL-0100_RLatLon0.09_PT061H.grib2 2026-05-07 08:58 421K
20260507T06Z_MSC_RDPS_WindDir_IsbL-0150_RLatLon0.09_PT061H.grib2 2026-05-07 08:58 418K
20260507T06Z_MSC_RDPS_WindDir_IsbL-0175_RLatLon0.09_PT061H.grib2 2026-05-07 08:58 447K
20260507T06Z_MSC_RDPS_WindDir_IsbL-0200_RLatLon0.09_PT061H.grib2 2026-05-07 08:58 461K
20260507T06Z_MSC_RDPS_WindDir_IsbL-0225_RLatLon0.09_PT061H.grib2 2026-05-07 08:58 463K
20260507T06Z_MSC_RDPS_WindDir_IsbL-0250_RLatLon0.09_PT061H.grib2 2026-05-07 08:58 463K
20260507T06Z_MSC_RDPS_WindDir_IsbL-0275_RLatLon0.09_PT061H.grib2 2026-05-07 08:58 480K
20260507T06Z_MSC_RDPS_WindDir_IsbL-0300_RLatLon0.09_PT061H.grib2 2026-05-07 08:58 474K
20260507T06Z_MSC_RDPS_WindDir_IsbL-0350_RLatLon0.09_PT061H.grib2 2026-05-07 08:58 502K
20260507T06Z_MSC_RDPS_WindDir_IsbL-0400_RLatLon0.09_PT061H.grib2 2026-05-07 08:58 525K
20260507T06Z_MSC_RDPS_WindDir_IsbL-0450_RLatLon0.09_PT061H.grib2 2026-05-07 08:58 538K
20260507T06Z_MSC_RDPS_WindDir_IsbL-0500_RLatLon0.09_PT061H.grib2 2026-05-07 08:58 559K
20260507T06Z_MSC_RDPS_WindDir_IsbL-0550_RLatLon0.09_PT061H.grib2 2026-05-07 08:58 568K
20260507T06Z_MSC_RDPS_WindDir_IsbL-0600_RLatLon0.09_PT061H.grib2 2026-05-07 08:58 593K
20260507T06Z_MSC_RDPS_WindDir_IsbL-0650_RLatLon0.09_PT061H.grib2 2026-05-07 08:58 629K
20260507T06Z_MSC_RDPS_WindDir_IsbL-0700_RLatLon0.09_PT061H.grib2 2026-05-07 08:58 673K
20260507T06Z_MSC_RDPS_WindDir_IsbL-0750_RLatLon0.09_PT061H.grib2 2026-05-07 08:58 727K
20260507T06Z_MSC_RDPS_WindDir_IsbL-0800_RLatLon0.09_PT061H.grib2 2026-05-07 08:58 801K
20260507T06Z_MSC_RDPS_WindDir_IsbL-0850_RLatLon0.09_PT061H.grib2 2026-05-07 08:58 866K
20260507T06Z_MSC_RDPS_WindDir_IsbL-0875_RLatLon0.09_PT061H.grib2 2026-05-07 08:58 890K
20260507T06Z_MSC_RDPS_WindDir_IsbL-0900_RLatLon0.09_PT061H.grib2 2026-05-07 08:58 911K
20260507T06Z_MSC_RDPS_WindDir_IsbL-0925_RLatLon0.09_PT061H.grib2 2026-05-07 08:58 918K
20260507T06Z_MSC_RDPS_WindDir_IsbL-0950_RLatLon0.09_PT061H.grib2 2026-05-07 08:58 918K
20260507T06Z_MSC_RDPS_WindDir_IsbL-0970_RLatLon0.09_PT061H.grib2 2026-05-07 08:58 922K
20260507T06Z_MSC_RDPS_WindDir_IsbL-0985_RLatLon0.09_PT061H.grib2 2026-05-07 08:58 931K
20260507T06Z_MSC_RDPS_WindDir_IsbL-1000_RLatLon0.09_PT061H.grib2 2026-05-07 08:58 946K
20260507T06Z_MSC_RDPS_WindDir_IsbL-1015_RLatLon0.09_PT061H.grib2 2026-05-07 08:58 961K
20260507T06Z_MSC_RDPS_WindGust-Max_AGL-10m_RLatLon0.09_PT061H.grib2 2026-05-07 08:58 1.0M
20260507T06Z_MSC_RDPS_WindGust-Min_AGL-10m_RLatLon0.09_PT061H.grib2 2026-05-07 08:58 1.0M
20260507T06Z_MSC_RDPS_WindGust_AGL-10m_RLatLon0.09_PT061H.grib2 2026-05-07 08:58 1.0M
20260507T06Z_MSC_RDPS_WindSpeed_AGL-10m_RLatLon0.09_PT061H.grib2 2026-05-07 08:58 844K
20260507T06Z_MSC_RDPS_WindSpeed_AGL-120m_RLatLon0.09_PT061H.grib2 2026-05-07 08:58 669K
20260507T06Z_MSC_RDPS_WindSpeed_AGL-40m_RLatLon0.09_PT061H.grib2 2026-05-07 08:58 674K
20260507T06Z_MSC_RDPS_WindSpeed_AGL-80m_RLatLon0.09_PT061H.grib2 2026-05-07 08:58 670K
20260507T06Z_MSC_RDPS_WindSpeed_IsbL-0001_RLatLon0.09_PT061H.grib2 2026-05-07 08:58 254K
20260507T06Z_MSC_RDPS_WindSpeed_IsbL-0005_RLatLon0.09_PT061H.grib2 2026-05-07 08:58 381K
20260507T06Z_MSC_RDPS_WindSpeed_IsbL-0010_RLatLon0.09_PT061H.grib2 2026-05-07 08:58 399K
20260507T06Z_MSC_RDPS_WindSpeed_IsbL-0020_RLatLon0.09_PT061H.grib2 2026-05-07 08:58 325K
20260507T06Z_MSC_RDPS_WindSpeed_IsbL-0030_RLatLon0.09_PT061H.grib2 2026-05-07 08:58 417K
20260507T06Z_MSC_RDPS_WindSpeed_IsbL-0050_RLatLon0.09_PT061H.grib2 2026-05-07 08:58 342K
20260507T06Z_MSC_RDPS_WindSpeed_IsbL-0100_RLatLon0.09_PT061H.grib2 2026-05-07 08:58 472K
20260507T06Z_MSC_RDPS_WindSpeed_IsbL-0150_RLatLon0.09_PT061H.grib2 2026-05-07 08:58 373K
20260507T06Z_MSC_RDPS_WindSpeed_IsbL-0175_RLatLon0.09_PT061H.grib2 2026-05-07 08:58 419K
20260507T06Z_MSC_RDPS_WindSpeed_IsbL-0200_RLatLon0.09_PT061H.grib2 2026-05-07 08:58 435K
20260507T06Z_MSC_RDPS_WindSpeed_IsbL-0225_RLatLon0.09_PT061H.grib2 2026-05-07 08:58 443K
20260507T06Z_MSC_RDPS_WindSpeed_IsbL-0250_RLatLon0.09_PT061H.grib2 2026-05-07 08:58 447K
20260507T06Z_MSC_RDPS_WindSpeed_IsbL-0275_RLatLon0.09_PT061H.grib2 2026-05-07 08:58 466K
20260507T06Z_MSC_RDPS_WindSpeed_IsbL-0300_RLatLon0.09_PT061H.grib2 2026-05-07 08:58 462K
20260507T06Z_MSC_RDPS_WindSpeed_IsbL-0350_RLatLon0.09_PT061H.grib2 2026-05-07 08:58 473K
20260507T06Z_MSC_RDPS_WindSpeed_IsbL-0400_RLatLon0.09_PT061H.grib2 2026-05-07 08:58 476K
20260507T06Z_MSC_RDPS_WindSpeed_IsbL-0450_RLatLon0.09_PT061H.grib2 2026-05-07 08:58 460K
20260507T06Z_MSC_RDPS_WindSpeed_IsbL-0500_RLatLon0.09_PT061H.grib2 2026-05-07 08:58 462K
20260507T06Z_MSC_RDPS_WindSpeed_IsbL-0550_RLatLon0.09_PT061H.grib2 2026-05-07 08:58 582K
20260507T06Z_MSC_RDPS_WindSpeed_IsbL-0600_RLatLon0.09_PT061H.grib2 2026-05-07 08:58 595K
20260507T06Z_MSC_RDPS_WindSpeed_IsbL-0650_RLatLon0.09_PT061H.grib2 2026-05-07 08:58 658K
20260507T06Z_MSC_RDPS_WindSpeed_IsbL-0700_RLatLon0.09_PT061H.grib2 2026-05-07 08:58 686K
20260507T06Z_MSC_RDPS_WindSpeed_IsbL-0750_RLatLon0.09_PT061H.grib2 2026-05-07 08:58 721K
20260507T06Z_MSC_RDPS_WindSpeed_IsbL-0800_RLatLon0.09_PT061H.grib2 2026-05-07 08:58 764K
20260507T06Z_MSC_RDPS_WindSpeed_IsbL-0850_RLatLon0.09_PT061H.grib2 2026-05-07 08:58 820K
20260507T06Z_MSC_RDPS_WindSpeed_IsbL-0875_RLatLon0.09_PT061H.grib2 2026-05-07 08:58 838K
20260507T06Z_MSC_RDPS_WindSpeed_IsbL-0900_RLatLon0.09_PT061H.grib2 2026-05-07 08:58 855K
20260507T06Z_MSC_RDPS_WindSpeed_IsbL-0925_RLatLon0.09_PT061H.grib2 2026-05-07 08:58 864K
20260507T06Z_MSC_RDPS_WindSpeed_IsbL-0950_RLatLon0.09_PT061H.grib2 2026-05-07 08:58 864K
20260507T06Z_MSC_RDPS_WindSpeed_IsbL-0970_RLatLon0.09_PT061H.grib2 2026-05-07 08:58 863K
20260507T06Z_MSC_RDPS_WindSpeed_IsbL-0985_RLatLon0.09_PT061H.grib2 2026-05-07 08:58 860K
20260507T06Z_MSC_RDPS_WindSpeed_IsbL-1000_RLatLon0.09_PT061H.grib2 2026-05-07 08:58 855K
20260507T06Z_MSC_RDPS_WindSpeed_IsbL-1015_RLatLon0.09_PT061H.grib2 2026-05-07 08:58 847K
20260507T06Z_MSC_RDPS_WindU_AGL-10m_RLatLon0.09_PT061H.grib2 2026-05-07 08:58 437K
20260507T06Z_MSC_RDPS_WindU_AGL-120m_RLatLon0.09_PT061H.grib2 2026-05-07 08:58 537K
20260507T06Z_MSC_RDPS_WindU_AGL-40m_RLatLon0.09_PT061H.grib2 2026-05-07 08:58 540K
20260507T06Z_MSC_RDPS_WindU_AGL-80m_RLatLon0.09_PT061H.grib2 2026-05-07 08:58 538K
20260507T06Z_MSC_RDPS_WindU_IsbL-0001_RLatLon0.09_PT061H.grib2 2026-05-07 08:58 294K
20260507T06Z_MSC_RDPS_WindU_IsbL-0005_RLatLon0.09_PT061H.grib2 2026-05-07 08:58 286K
20260507T06Z_MSC_RDPS_WindU_IsbL-0010_RLatLon0.09_PT061H.grib2 2026-05-07 08:58 299K
20260507T06Z_MSC_RDPS_WindU_IsbL-0020_RLatLon0.09_PT061H.grib2 2026-05-07 08:58 353K
20260507T06Z_MSC_RDPS_WindU_IsbL-0030_RLatLon0.09_PT061H.grib2 2026-05-07 08:58 312K
20260507T06Z_MSC_RDPS_WindU_IsbL-0050_RLatLon0.09_PT061H.grib2 2026-05-07 08:58 372K
20260507T06Z_MSC_RDPS_WindU_IsbL-0100_RLatLon0.09_PT061H.grib2 2026-05-07 08:58 428K
20260507T06Z_MSC_RDPS_WindU_IsbL-0150_RLatLon0.09_PT061H.grib2 2026-05-07 08:58 390K
20260507T06Z_MSC_RDPS_WindU_IsbL-0175_RLatLon0.09_PT061H.grib2 2026-05-07 08:58 414K
20260507T06Z_MSC_RDPS_WindU_IsbL-0200_RLatLon0.09_PT061H.grib2 2026-05-07 08:58 429K
20260507T06Z_MSC_RDPS_WindU_IsbL-0225_RLatLon0.09_PT061H.grib2 2026-05-07 08:58 435K
20260507T06Z_MSC_RDPS_WindU_IsbL-0250_RLatLon0.09_PT061H.grib2 2026-05-07 08:58 339K
20260507T06Z_MSC_RDPS_WindU_IsbL-0275_RLatLon0.09_PT061H.grib2 2026-05-07 08:58 353K
20260507T06Z_MSC_RDPS_WindU_IsbL-0300_RLatLon0.09_PT061H.grib2 2026-05-07 08:58 348K
20260507T06Z_MSC_RDPS_WindU_IsbL-0350_RLatLon0.09_PT061H.grib2 2026-05-07 08:58 356K
20260507T06Z_MSC_RDPS_WindU_IsbL-0400_RLatLon0.09_PT061H.grib2 2026-05-07 08:58 463K
20260507T06Z_MSC_RDPS_WindU_IsbL-0450_RLatLon0.09_PT061H.grib2 2026-05-07 08:58 464K
20260507T06Z_MSC_RDPS_WindU_IsbL-0500_RLatLon0.09_PT061H.grib2 2026-05-07 08:58 468K
20260507T06Z_MSC_RDPS_WindU_IsbL-0550_RLatLon0.09_PT061H.grib2 2026-05-07 08:58 472K
20260507T06Z_MSC_RDPS_WindU_IsbL-0600_RLatLon0.09_PT061H.grib2 2026-05-07 08:58 483K
20260507T06Z_MSC_RDPS_WindU_IsbL-0650_RLatLon0.09_PT061H.grib2 2026-05-07 08:58 486K
20260507T06Z_MSC_RDPS_WindU_IsbL-0700_RLatLon0.09_PT061H.grib2 2026-05-07 08:58 512K
20260507T06Z_MSC_RDPS_WindU_IsbL-0750_RLatLon0.09_PT061H.grib2 2026-05-07 08:58 543K
20260507T06Z_MSC_RDPS_WindU_IsbL-0800_RLatLon0.09_PT061H.grib2 2026-05-07 08:58 586K
20260507T06Z_MSC_RDPS_WindU_IsbL-0850_RLatLon0.09_PT061H.grib2 2026-05-07 08:58 632K
20260507T06Z_MSC_RDPS_WindU_IsbL-0875_RLatLon0.09_PT061H.grib2 2026-05-07 08:58 647K
20260507T06Z_MSC_RDPS_WindU_IsbL-0900_RLatLon0.09_PT061H.grib2 2026-05-07 08:58 659K
20260507T06Z_MSC_RDPS_WindU_IsbL-0925_RLatLon0.09_PT061H.grib2 2026-05-07 08:58 664K
20260507T06Z_MSC_RDPS_WindU_IsbL-0950_RLatLon0.09_PT061H.grib2 2026-05-07 08:58 660K
20260507T06Z_MSC_RDPS_WindU_IsbL-0970_RLatLon0.09_PT061H.grib2 2026-05-07 08:58 797K
20260507T06Z_MSC_RDPS_WindU_IsbL-0985_RLatLon0.09_PT061H.grib2 2026-05-07 08:58 794K
20260507T06Z_MSC_RDPS_WindU_IsbL-1000_RLatLon0.09_PT061H.grib2 2026-05-07 08:58 790K
20260507T06Z_MSC_RDPS_WindU_IsbL-1015_RLatLon0.09_PT061H.grib2 2026-05-07 08:58 832K
20260507T06Z_MSC_RDPS_WindV_AGL-10m_RLatLon0.09_PT061H.grib2 2026-05-07 08:58 436K
20260507T06Z_MSC_RDPS_WindV_AGL-120m_RLatLon0.09_PT061H.grib2 2026-05-07 08:58 537K
20260507T06Z_MSC_RDPS_WindV_AGL-40m_RLatLon0.09_PT061H.grib2 2026-05-07 08:58 540K
20260507T06Z_MSC_RDPS_WindV_AGL-80m_RLatLon0.09_PT061H.grib2 2026-05-07 08:58 538K
20260507T06Z_MSC_RDPS_WindV_IsbL-0001_RLatLon0.09_PT061H.grib2 2026-05-07 08:58 247K
20260507T06Z_MSC_RDPS_WindV_IsbL-0005_RLatLon0.09_PT061H.grib2 2026-05-07 08:58 286K
20260507T06Z_MSC_RDPS_WindV_IsbL-0010_RLatLon0.09_PT061H.grib2 2026-05-07 08:58 301K
20260507T06Z_MSC_RDPS_WindV_IsbL-0020_RLatLon0.09_PT061H.grib2 2026-05-07 08:58 316K
20260507T06Z_MSC_RDPS_WindV_IsbL-0030_RLatLon0.09_PT061H.grib2 2026-05-07 08:58 314K
20260507T06Z_MSC_RDPS_WindV_IsbL-0050_RLatLon0.09_PT061H.grib2 2026-05-07 08:58 338K
20260507T06Z_MSC_RDPS_WindV_IsbL-0100_RLatLon0.09_PT061H.grib2 2026-05-07 08:58 423K
20260507T06Z_MSC_RDPS_WindV_IsbL-0150_RLatLon0.09_PT061H.grib2 2026-05-07 08:58 388K
20260507T06Z_MSC_RDPS_WindV_IsbL-0175_RLatLon0.09_PT061H.grib2 2026-05-07 08:58 411K
20260507T06Z_MSC_RDPS_WindV_IsbL-0200_RLatLon0.09_PT061H.grib2 2026-05-07 08:58 330K
20260507T06Z_MSC_RDPS_WindV_IsbL-0225_RLatLon0.09_PT061H.grib2 2026-05-07 08:58 335K
20260507T06Z_MSC_RDPS_WindV_IsbL-0250_RLatLon0.09_PT061H.grib2 2026-05-07 08:58 364K
20260507T06Z_MSC_RDPS_WindV_IsbL-0275_RLatLon0.09_PT061H.grib2 2026-05-07 08:58 377K
20260507T06Z_MSC_RDPS_WindV_IsbL-0300_RLatLon0.09_PT061H.grib2 2026-05-07 08:58 347K
20260507T06Z_MSC_RDPS_WindV_IsbL-0350_RLatLon0.09_PT061H.grib2 2026-05-07 08:58 357K
20260507T06Z_MSC_RDPS_WindV_IsbL-0400_RLatLon0.09_PT061H.grib2 2026-05-07 08:58 359K
20260507T06Z_MSC_RDPS_WindV_IsbL-0450_RLatLon0.09_PT061H.grib2 2026-05-07 08:58 462K
20260507T06Z_MSC_RDPS_WindV_IsbL-0500_RLatLon0.09_PT061H.grib2 2026-05-07 08:58 465K
20260507T06Z_MSC_RDPS_WindV_IsbL-0550_RLatLon0.09_PT061H.grib2 2026-05-07 08:58 468K
20260507T06Z_MSC_RDPS_WindV_IsbL-0600_RLatLon0.09_PT061H.grib2 2026-05-07 08:58 478K
20260507T06Z_MSC_RDPS_WindV_IsbL-0650_RLatLon0.09_PT061H.grib2 2026-05-07 08:58 496K
20260507T06Z_MSC_RDPS_WindV_IsbL-0700_RLatLon0.09_PT061H.grib2 2026-05-07 08:58 519K
20260507T06Z_MSC_RDPS_WindV_IsbL-0750_RLatLon0.09_PT061H.grib2 2026-05-07 08:58 549K
20260507T06Z_MSC_RDPS_WindV_IsbL-0800_RLatLon0.09_PT061H.grib2 2026-05-07 08:58 581K
20260507T06Z_MSC_RDPS_WindV_IsbL-0850_RLatLon0.09_PT061H.grib2 2026-05-07 08:58 628K
20260507T06Z_MSC_RDPS_WindV_IsbL-0875_RLatLon0.09_PT061H.grib2 2026-05-07 08:58 644K
20260507T06Z_MSC_RDPS_WindV_IsbL-0900_RLatLon0.09_PT061H.grib2 2026-05-07 08:58 657K
20260507T06Z_MSC_RDPS_WindV_IsbL-0925_RLatLon0.09_PT061H.grib2 2026-05-07 08:58 664K
20260507T06Z_MSC_RDPS_WindV_IsbL-0950_RLatLon0.09_PT061H.grib2 2026-05-07 08:58 663K
20260507T06Z_MSC_RDPS_WindV_IsbL-0970_RLatLon0.09_PT061H.grib2 2026-05-07 08:58 801K
20260507T06Z_MSC_RDPS_WindV_IsbL-0985_RLatLon0.09_PT061H.grib2 2026-05-07 08:58 797K
20260507T06Z_MSC_RDPS_WindV_IsbL-1000_RLatLon0.09_PT061H.grib2 2026-05-07 08:58 792K
20260507T06Z_MSC_RDPS_WindV_IsbL-1015_RLatLon0.09_PT061H.grib2 2026-05-07 08:58 833K